EW7244 Weather Reports


time (UTC)temp
C
wind
direction
speed
KPH
gust
KPH
rain 1hr
cm
rain 24hr
cm
rain mn
cm
humidity
%
barometer
mb
20260504044550 11 225 0.0 0.0 0.00 0.00 0.00 79 1013.4
20260504043046 10 225 0.0 0.0 0.00 0.00 0.00 79 1013.3
20260504041527 10 225 0.0 0.0 0.00 0.00 0.00 78 1013.3
20260504040005 10 225 0.0 0.0 0.00 0.00 0.00 78 1013.2
20260504034554 11 225 0.0 0.0 0.00 0.00 0.00 77 1013.2
20260504033116 11 225 0.0 0.0 0.00 0.00 0.00 77 1013.2
20260504031552 11 225 0.0 0.0 0.00 0.00 0.00 76 1013.3
20260504030114 11 225 0.0 0.0 0.00 0.00 0.00 76 1013.3
20260504024552 11 225 0.0 0.0 0.00 0.00 0.00 76 1013.3
20260504023044 11 225 0.0 0.0 0.00 0.00 0.00 76 1013.4
20260504021600 11 225 0.0 0.0 0.00 0.00 0.00 75 1013.4
20260504020105 11 225 0.0 0.0 0.00 0.00 0.00 75 1013.4
20260504014549 11 225 0.0 0.0 0.00 0.00 0.00 74 1013.4
20260504013050 11 225 0.0 0.0 0.00 0.00 0.00 75 1013.4
20260504011540 11 225 0.0 0.0 0.00 0.00 0.00 74 1013.4
20260504010059 11 225 0.0 0.0 0.00 0.00 0.00 74 1013.4
20260504004550 11 225 0.0 0.0 0.00 0.00 0.00 73 1013.4
20260504003053 12 225 0.0 0.0 0.00 0.00 0.00 73 1013.6
20260504001545 12 225 0.0 0.0 0.00 0.00 0.00 72 1013.6
20260504000059 12 225 0.0 0.0 0.00 0.00 0.00 71 1013.6
20260503234550 12 225 0.0 0.0 0.00 0.00 0.00 70 1013.5
20260503233041 13 225 0.0 0.0 0.00 0.00 0.00 69 1013.6
20260503231528 13 225 0.0 0.0 0.00 0.00 0.00 70 1013.5
20260503230007 12 225 0.0 0.0 0.00 0.00 0.00 70 1013.6
20260503224559 13 225 0.0 0.0 0.00 0.00 0.00 69 1013.6
20260503223100 13 225 0.0 0.0 0.00 0.00 0.00 68 1013.5
20260503221557 13 225 0.0 0.0 0.00 0.00 0.00 67 1013.4
20260503220047 13 225 0.0 0.0 0.00 0.00 0.00 67 1013.4
20260503214600 13 225 0.0 0.0 0.00 0.00 0.00 66 1013.5
20260503213002 13 225 0.0 0.0 0.00 0.00 0.00 67 1013.4
20260503211546 13 225 0.0 0.0 0.00 0.00 0.00 65 1013.4
20260503210040 14 220 0.0 0.0 0.00 0.00 0.00 64 1013.2
20260503204557 14 220 0.0 0.0 0.00 0.00 0.00 66 1013.2
20260503203049 14 220 0.0 0.0 0.00 0.00 0.00 65 1013.2
20260503201550 14 219 0.0 0.0 0.00 0.00 0.00 64 1013.1
20260503200058 15 219 0.0 0.0 0.00 0.00 0.00 63 1013.1
20260503194609 15 219 0.0 0.0 0.00 0.00 0.00 62 1012.9
20260503193052 15 219 0.0 0.0 0.00 0.00 0.00 61 1012.9
20260503191547 15 218 0.0 0.0 0.00 0.00 0.00 60 1012.9
20260503190056 15 217 0.0 0.0 0.00 0.00 0.00 59 1012.7
20260503184558 15 216 0.0 0.0 0.00 0.00 0.00 61 1012.5
20260503183053 16 64 0.0 0.0 0.00 0.00 0.00 58 1012.3
20260503181557 16 64 0.0 0.0 0.00 0.00 0.00 56 1012.3
20260503180037 17 249 0.0 0.0 0.00 0.00 0.00 58 1012.3
20260503174512 17 346 0.0 0.0 0.00 0.00 0.00 56 1012.2
20260503173109 17 236 0.0 0.0 0.00 0.00 0.00 54 1012.0
20260503171552 18 223 0.0 0.0 0.00 0.00 0.00 52 1012.1
20260503170113 19 147 0.0 4.8 0.00 0.00 0.00 50 1012.2
20260503120104 22 90 0.0 0.0 0.00 0.00 0.00 46 1013.5
20260503081550 14 97 0.0 3.2 0.00 0.00 0.00 69 1015.7